YAOGAN 24

Last updated on Wed Apr 24 2024 00:02:24 GMT+0000 (Coordinated Universal Time)

1 40310U 14072A 24114.56061704 .00002979 00000+0 43858-3 0 9990 2 40310 98.0469 239.3045 0011674 256.1887 103.8024 14.76115101507960
UTC large
Height (km)
Speed (km/s)
/
Latitude / Longitude
Inclination (degrees)
Orbital Period (minutes)
Azimuth
Elevation
Range (km)
Doppler Factor

Next 0 passes for location: London (51.5072 / 0.1276)

Sorry there are no passes over London.
YAOGAN 24